1497974400.84,13050,25.44,74430.3,17.49,-21.73,-23.99,0,*47
1497974402.09,13051,25.5,74428.8,17.43,-21.67,-23.89,0,*48
1497974403.33,13052,25.5,74428.5,17.41,-21.03,-23.09,0,*43
1497974404.61,13053,25.5,74430.8,17.39,-21.27,-23.29,0,*49
1497974405.86,13054,25.5,74428.0,17.39,-20.93,-23.03,0,*48
1497974407.14,13055,25.5,74432.5,17.35,-21.27,-23.33,0,*48
1497974408.37,13056,25.5,74428.3,17.35,-20.69,-22.67,0,*40
1497974409.6,13057,25.5,74428.5,17.31,-20.63,-22.67,0,*4F
1497974410.82,13058,25.5,74428.3,17.33,-20.53,-22.41,0,*45
1497974412.05,13059,25.5,74430.5,17.31,-19.95,-21.93,0,*4A
1497974413.31,13060,25.5,74430.0,17.31,-19.65,-21.43,0,*42
1497974414.52,13061,25.5,74426.3,17.29,-18.79,-20.59,0,*4C
1497974415.78,13062,25.5,74428.0,17.31,-18.59,-20.29,0,*43
1497974416.99,13063,25.5,74424.8,17.33,-18.45,-20.25,0,*41
1497974418.24,13064,25.5,74430.0,17.31,-18.45,-20.19,0,*4B
1497974419.47,13065,25.5,74430.3,17.33,-19.37,-21.33,0,*45
1497974420.69,13066,25.5,74426.8,17.33,-20.15,-22.03,0,*4C
1497974421.97,13067,25.5,74432.5,17.31,-20.35,-22.21,0,*4D
1497974423.22,13068,25.5,74428.8,17.31,-20.43,-22.21,0,*43
1497974424.48,13069,25.5,74434.0,17.29,-20.35,-22.17,0,*4F
1497974425.7,13070,25.5,74428.3,17.27,-20.93,-22.83,0,*48
1497974426.93,13071,25.5,74430.8,17.27,-21.73,-23.39,0,*46
1497974428.19,13072,25.5,74428.3,17.23,-21.23,-23.09,0,*47
1497974429.45,13073,25.5,74428.8,17.21,-21.53,-23.23,0,*4B
1497974430.68,13074,25.5,74428.0,17.17,-21.27,-22.97,0,*44
1497974431.9,13075,25.5,74428.8,17.17,-20.79,-22.37,0,*45
1497974433.13,13076,25.5,74428.5,17.13,-20.99,-22.63,0,*4D
1497974434.37,13077,25.5,74432.3,17.13,-20.89,-22.47,0,*4B
1497974435.63,13078,25.5,74432.3,17.11,-20.49,-22.11,0,*49
1497974436.86,13079,25.5,74430.5,17.11,-20.43,-22.11,0,*42
1497974438.12,13080,25.5,74430.0,17.11,-19.99,-21.67,0,*4B
1497974439.37,13081,25.5,74428.8,17.09,-20.35,-21.97,0,*40
1497974440.56,13082,25.5,74428.5,17.09,-20.29,-21.73,0,*44
1497974441.78,13083,25.5,74426.3,17.09,-20.09,-21.57,0,*41
1497974442.97,13084,25.5,74428.5,17.07,-20.05,-21.47,0,*45
1497974444.23,13085,25.5,74430.5,17.07,-19.61,-20.99,0,*4E
1497974445.46,13086,25.5,74428.8,17.07,-19.99,-21.33,0,*4B
1497974446.68,13087,25.5,74430.0,17.07,-20.35,-21.77,0,*46
1497974447.9,13088,25.5,74428.3,17.05,-20.09,-21.39,0,*4E
1497974449.18,13089,25.5,74426.3,17.05,-19.65,-20.99,0,*44
1497974450.42,13090,25.5,74424.8,17.05,-19.17,-20.39,0,*43
1497974451.67,13091,25.5,74430.3,17.05,-18.99,-20.19,0,*47
1497974452.94,13092,25.5,74428.0,17.05,-19.31,-20.59,0,*43
1497974454.23,13093,25.5,74424.8,17.05,-19.27,-20.53,0,*4F
1497974455.51,13094,25.5,74428.3,17.05,-19.65,-20.83,0,*43
1497974456.76,13095,25.5,74428.8,17.05,-19.03,-20.19,0,*41
1497974458.0,13096,25.5,74430.3,17.05,-19.17,-20.25,0,*48
1497974459.25,13097,25.5,74428.5,17.05,-18.35,-19.51,0,*41
1497974460.47,13098,25.5,74424.8,17.07,-18.07,-19.23,0,*48
1497974461.73,13099,25.5,74430.0,17.07,-18.31,-19.41,0,*48
1497974462.98,13100,25.5,74428.5,17.11,-18.01,-19.03,0,*4B
1497974464.2,13101,25.5,74428.3,17.11,-18.17,-19.03,0,*4D
1497974465.41,13102,25.5,74426.8,17.13,-18.21,-19.13,0,*48
1497974466.64,13103,25.5,74430.3,17.13,-17.55,-18.45,0,*47
1497974467.88,13104,25.5,74430.5,17.13,-17.63,-18.55,0,*44
1497974469.13,13105,25.5,74430.0,17.13,-17.63,-18.55,0,*45
1497974470.38,13106,25.5,74426.3,17.15,-17.79,-18.69,0,*44
1497974471.67,13107,25.5,74428.5,17.15,-18.35,-19.41,0,*49
1497974472.89,13108,25.5,74428.5,17.17,-18.79,-19.61,0,*4E
1497974474.13,13109,25.5,74428.3,17.17,-18.79,-19.57,0,*4A
1497974475.33,13110,25.5,74428.8,17.17,-18.49,-19.17,0,*45
1497974476.57,13111,25.5,74430.3,17.17,-18.35,-18.93,0,*42
1497974477.77,13112,25.5,74430.5,17.17,-18.25,-18.99,0,*4A
1497974478.96,13113,25.5,74424.0,17.17,-18.17,-18.69,0,*45
1497974480.16,13114,25.5,74428.0,17.17,-18.25,-18.79,0,*42
1497974481.4,13115,25.5,74430.8,17.19,-18.11,-18.59,0,*48
1497974482.67,13116,25.5,74428.8,17.19,-18.35,-18.89,0,*40
1497974483.9,13117,25.5,74430.0,17.21,-18.89,-19.17,0,*4B
1497974485.1,13118,25.5,74432.5,17.21,-18.69,-18.83,0,*46
1497974486.3,13119,25.5,74428.3,17.21,-18.99,-19.07,0,*45
1497974487.53,13120,25.5,74426.5,17.21,-19.31,-19.51,0,*4F
1497974488.73,13121,25.5,74426.8,17.21,-20.29,-20.43,0,*44
1497974489.96,13122,25.5,74428.0,17.21,-20.53,-20.59,0,*41
1497974491.22,13123,25.5,74430.3,17.17,-20.49,-20.53,0,*44
1497974492.49,13124,25.5,74428.8,17.15,-20.35,-20.19,0,*44
1497974493.75,13125,25.5,74428.3,17.15,-20.15,-19.99,0,*45
1497974495.01,13126,25.5,74434.3,17.15,-19.71,-19.31,0,*4C
1497974496.23,13127,25.5,74430.0,17.17,-19.31,-18.99,0,*48
1497974497.46,13128,25.5,74426.5,17.15,-19.17,-18.83,0,*4A
1497974498.69,13129,25.5,74426.5,17.15,-18.99,-18.65,0,*44
1497974499.92,13130,25.5,74428.5,17.15,-18.65,-18.25,0,*4B
1497974501.15,13131,25.5,74430.5,17.15,-18.69,-18.21,0,*42
1497974502.34,13132,25.5,74426.0,17.17,-18.79,-18.25,0,*46
1497974503.58,13133,25.5,74428.3,17.19,-19.13,-18.65,0,*40
1497974504.83,13134,25.5,74430.8,17.17,-18.93,-18.55,0,*43
1497974506.08,13135,25.5,74430.0,17.19,-19.13,-18.59,0,*49
1497974507.34,13136,25.5,74428.5,17.19,-18.35,-17.83,0,*47
1497974508.6,13137,25.5,74424.8,17.19,-18.31,-17.69,0,*46
1497974509.83,13138,25.5,74426.5,17.19,-18.49,-17.87,0,*46
1497974511.1,13139,25.5,74426.0,17.21,-17.97,-17.07,0,*48
1497974512.35,13140,25.5,74428.0,17.23,-18.25,-17.55,0,*45
1497974513.6,13141,25.5,74426.8,17.23,-18.17,-17.41,0,*40
1497974514.85,13142,25.5,74426.8,17.23,-18.11,-17.25,0,*47
1497974516.1,13143,25.5,74428.3,17.29,-17.55,-16.51,0,*41
1497974517.33,13144,25.5,74430.8,17.27,-17.87,-16.89,0,*42
1497974518.53,13145,25.5,74430.5,17.29,-17.87,-16.97,0,*42
1497974519.78,13146,25.5,74428.3,17.33,-17.63,-16.65,0,*4D
1497974521.01,13147,25.5,74430.3,17.33,-17.63,-16.59,0,*43
1497974522.26,13148,25.5,74428.3,17.35,-17.63,-16.59,0,*4A
1497974523.52,13149,25.5,74426.8,17.35,-17.59,-16.55,0,*4E
1497974524.75,13150,25.5,74430.3,17.37,-17.59,-16.41,0,*41
1497974526.01,13151,25.5,74426.8,17.37,-17.45,-16.27,0,*4D
1497974527.29,13152,25.5,74428.5,17.39,-17.41,-16.23,0,*40
1497974528.52,13153,25.5,74428.5,17.41,-17.49,-16.23,0,*46
1497974529.79,13154,25.5,74426.0,17.39,-17.55,-16.27,0,*47
1497974531.03,13155,25.5,74424.3,17.41,-17.21,-15.95,0,*40
1497974532.29,13156,25.5,74426.0,17.43,-17.25,-15.95,0,*45
1497974533.51,13157,25.5,74428.3,17.43,-17.69,-16.37,0,*47
1497974534.77,13158,25.5,74424.0,17.45,-17.07,-15.85,0,*4C
1497974535.98,13159,25.5,74426.8,17.45,-17.49,-16.03,0,*4A
1497974537.24,13160,25.5,74424.5,17.51,-17.41,-15.95,0,*41
1497974538.49,13161,25.5,74426.8,17.51,-17.11,-15.75,0,*4B
1497974539.77,13162,25.5,74424.0,17.51,-17.21,-15.81,0,*40
1497974541.03,13163,25.5,74432.3,17.53,-17.25,-15.81,0,*47
1497974542.29,13164,25.5,74424.8,17.55,-17.69,-16.17,0,*42
1497974543.52,13165,25.5,74430.0,17.53,-17.25,-15.71,0,*4E
1497974544.79,13166,25.5,74428.5,17.55,-17.03,-15.53,0,*4F
1497974546.05,13167,25.5,74426.3,17.59,-17.17,-15.63,0,*44
1497974547.25,13168,25.5,74426.3,17.57,-18.21,-16.41,0,*4C
1497974548.46,13169,25.5,74426.0,17.57,-18.07,-16.41,0,*49
1497974549.66,13170,25.5,74424.5,17.57,-18.17,-16.37,0,*41
1497974550.92,13171,25.5,74430.3,17.59,-17.87,-16.13,0,*4E
1497974552.17,13172,25.5,74426.5,17.59,-18.35,-16.41,0,*4C
1497974553.46,13173,25.5,74426.3,17.59,-17.93,-16.09,0,*42
1497974554.71,13174,25.5,74426.8,17.59,-18.35,-16.41,0,*4A
1497974555.97,13175,25.5,74430.8,17.57,-17.93,-15.85,0,*4D
1497974557.19,13176,25.5,74424.5,17.61,-17.35,-15.29,0,*41
1497974558.46,13177,25.5,74430.3,17.61,-17.41,-15.43,0,*4F
1497974559.69,13178,25.5,74424.3,17.61,-18.17,-16.23,0,*49
1497974560.95,13179,25.5,74424.5,17.63,-18.35,-16.41,0,*4E
1497974562.23,13180,25.5,74426.3,17.63,-17.63,-15.57,0,*40
1497974563.43,13181,25.5,74430.5,17.61,-17.87,-15.67,0,*4A
1497974564.64,13182,25.5,74424.5,17.61,-18.11,-15.75,0,*4A
1497974565.9,13183,25.5,74430.0,17.63,-18.41,-16.27,0,*48
1497974567.13,13184,25.5,74428.3,17.63,-18.25,-15.99,0,*4B
1497974568.37,13185,25.5,74426.8,17.61,-18.41,-16.17,0,*4F
1497974569.6,13186,25.5,74426.8,17.61,-18.17,-15.89,0,*4B
1497974570.84,13187,25.5,74426.0,17.61,-17.69,-15.57,0,*4F
1497974572.1,13188,25.5,74426.8,17.63,-17.93,-15.71,0,*43
1497974573.38,13189,25.5,74428.8,17.63,-18.55,-16.31,0,*40
1497974574.59,13190,25.5,74428.8,17.61,-18.11,-15.95,0,*47
1497974575.83,13191,25.5,74428.8,17.61,-17.59,-15.49,0,*44
1497974577.1,13192,25.5,74426.3,17.63,-17.45,-15.25,0,*42
1497974578.37,13193,25.5,74430.8,17.63,-17.45,-15.25,0,*43
1497974579.6,13194,25.5,74428.5,17.61,-17.73,-15.57,0,*46
1497974580.81,13195,25.5,74428.8,17.61,-17.69,-15.53,0,*48
1497974582.02,13196,25.5,74426.5,17.61,-17.73,-15.75,0,*44
1497974583.25,13197,25.5,74428.0,17.63,-16.93,-14.89,0,*4A
1497974584.51,13198,25.5,74428.0,17.63,-16.93,-14.97,0,*4A
1497974585.79,13199,25.5,74430.3,17.63,-17.07,-15.01,0,*49
1497974587.02,13200,25.5,74428.5,17.65,-16.45,-14.55,0,*4B
1497974588.25,13201,25.5,74428.5,17.65,-16.79,-14.83,0,*4E
1497974589.46,13202,25.5,74426.8,17.65,-16.59,-14.69,0,*4B
1497974590.68,13203,25.5,74430.3,17.67,-16.59,-14.69,0,*48
1497974591.94,13204,25.5,74428.8,17.67,-16.55,-14.79,0,*42
1497974593.16,13205,25.5,74426.0,17.67,-16.45,-14.69,0,*43
1497974594.41,13206,25.5,74428.3,17.67,-16.55,-14.83,0,*45
1497974595.64,13207,25.5,74426.8,17.69,-16.23,-14.61,0,*47
1497974596.92,13208,25.5,74428.3,17.73,-16.23,-14.55,0,*44
1497974598.17,13209,25.5,74424.3,17.69,-16.31,-14.79,0,*43
1497974599.46,13210,25.5,74430.8,17.73,-16.65,-15.21,0,*4D
1497974600.72,13211,25.5,74430.0,17.73,-16.55,-15.35,0,*4A
1497974601.97,13212,25.5,74430.8,17.69,-16.31,-14.93,0,*4D
1497974603.22,13213,25.5,74428.3,17.73,-15.81,-14.61,0,*42
1497974604.44,13214,25.5,74426.8,17.69,-15.49,-14.43,0,*4A
1497974605.71,13215,25.5,74426.0,17.73,-16.17,-15.29,0,*45
1497974606.98,13216,25.5,74430.3,17.73,-16.31,-15.29,0,*42
1497974608.23,13217,25.5,74428.0,17.73,-15.67,-14.79,0,*47
1497974609.47,13218,25.5,74430.8,17.75,-15.25,-14.55,0,*46
1497974610.72,13219,25.5,74428.3,17.77,-15.21,-14.65,0,*42
1497974611.94,13220,25.5,74424.5,17.75,-14.97,-14.61,0,*42
1497974613.17,13221,25.5,74428.0,17.75,-14.69,-14.51,0,*41
1497974614.42,13222,25.5,74428.5,17.77,-14.69,-14.51,0,*40
1497974615.65,13223,25.5,74430.0,17.77,-15.11,-15.11,0,*4A
1497974616.91,13224,25.5,74428.0,17.77,-14.37,-14.51,0,*4D
1497974618.17,13225,25.5,74426.8,17.77,-14.33,-14.51,0,*48
1497974619.4,13226,25.5,74426.5,17.81,-14.33,-14.65,0,*45
1497974620.68,13227,25.5,74424.3,17.81,-14.75,-15.21,0,*47
1497974621.92,13228,25.5,74428.8,17.81,-14.89,-15.49,0,*45
1497974623.14,13229,25.5,74428.8,17.79,-14.69,-15.43,0,*47
1497974624.38,13230,25.5,74426.8,17.79,-14.65,-15.39,0,*4E
1497974625.59,13231,25.5,74426.0,17.83,-14.37,-15.25,0,*40
1497974626.8,13232,25.5,74428.3,17.83,-14.23,-15.25,0,*46
1497974628.09,13233,25.5,74426.3,17.81,-14.05,-15.21,0,*45
1497974629.36,13234,25.5,74428.0,17.85,-14.11,-15.43,0,*47
1497974630.55,13235,25.5,74426.8,17.83,-14.61,-15.99,0,*40
1497974631.78,13236,25.5,74430.3,17.85,-14.37,-15.67,0,*47
1497974632.98,13237,25.56,74432.3,17.83,-14.89,-16.45,0,*46
1497974634.22,13238,25.5,74430.5,17.83,-14.97,-16.51,0,*43
1497974635.42,13239,25.5,74426.0,17.83,-14.61,-16.41,0,*4A
1497974636.66,13240,25.5,74430.3,17.83,-14.75,-16.51,0,*40
1497974637.88,13241,25.5,74428.3,17.83,-14.43,-16.03,0,*43
1497974639.09,13242,25.5,74428.0,17.83,-14.15,-15.99,0,*43
1497974640.36,13243,25.5,74430.0,17.85,-14.19,-16.09,0,*42
1497974641.56,13244,25.5,74430.3,17.83,-14.29,-16.03,0,*4A
1497974642.8,13245,25.5,74426.8,17.85,-14.23,-15.99,0,*47
1497974644.06,13246,25.5,74424.8,17.85,-14.55,-16.59,0,*4A
1497974645.31,13247,25.5,74428.8,17.85,-15.15,-17.17,0,*45
1497974646.54,13248,25.5,74430.0,17.83,-14.83,-16.89,0,*44
1497974647.82,13249,25.56,74430.5,17.85,-14.55,-16.69,0,*46
1497974649.06,13250,25.5,74430.8,17.87,-14.55,-16.55,0,*43
1497974650.34,13251,25.5,74428.5,17.85,-14.83,-17.03,0,*49
1497974651.53,13252,25.5,74430.3,17.83,-14.69,-16.89,0,*4B
1497974652.82,13253,25.5,74428.8,17.85,-14.83,-17.03,0,*4B
1497974654.1,13254,25.5,74428.5,17.85,-14.51,-16.69,0,*4E
1497974655.37,13255,25.5,74428.0,17.85,-14.97,-17.21,0,*48
1497974656.65,13256,25.5,74426.8,17.85,-14.97,-17.11,0,*48
1497974657.9,13257,25.5,74430.8,17.85,-15.07,-17.21,0,*42
1497974659.19,13258,25.56,74428.5,17.85,-14.83,-17.03,0,*40
1497974660.47,13259,25.5,74428.5,17.85,-14.83,-17.03,0,*41
1497974661.75,13260,25.5,74428.0,17.85,-14.97,-17.21,0,*4E
1497974662.97,13261,25.56,74428.0,17.85,-15.11,-17.49,0,*4E
1497974664.17,13262,25.5,74428.0,17.87,-15.11,-17.49,0,*4F
1497974665.4,13263,25.5,74426.8,17.85,-15.53,-17.87,0,*48
1497974666.66,13264,25.5,74428.5,17.85,-15.29,-17.79,0,*43
1497974667.94,13265,25.5,74426.8,17.85,-15.39,-17.79,0,*43
1497974669.21,13266,25.56,74430.3,17.85,-15.21,-17.59,0,*4B
1497974670.46,13267,25.5,74428.5,17.85,-15.11,-17.59,0,*49
1497974671.69,13268,25.5,74426.0,17.85,-15.11,-17.35,0,*4C
1497974672.94,13269,25.5,74426.3,17.85,-14.69,-17.11,0,*45
1497974674.19,13270,25.56,74430.5,17.83,-14.75,-17.41,0,*43
1497974675.45,13271,25.5,74428.3,17.87,-14.83,-17.45,0,*4B
1497974676.71,13272,25.5,74428.5,17.87,-14.55,-17.17,0,*44
1497974677.94,13273,25.56,74430.0,17.87,-14.83,-17.73,0,*4C
1497974679.16,13274,25.5,74426.0,17.89,-15.15,-17.73,0,*4B
1497974680.37,13275,25.56,74428.8,17.87,-15.53,-18.21,0,*4E
1497974681.62,13276,25.5,74426.5,17.87,-15.81,-18.55,0,*41
1497974682.84,13277,25.5,74426.3,17.85,-15.53,-18.25,0,*4A
1497974684.07,13278,25.56,74428.8,17.87,-15.85,-18.65,0,*48
1497974685.35,13279,25.56,74428.0,17.85,-15.57,-18.35,0,*41
1497974686.57,13280,25.5,74424.8,17.83,-16.17,-19.03,0,*42
1497974687.83,13281,25.56,74428.3,17.85,-15.25,-17.93,0,*40
1497974689.05,13282,25.56,74430.5,17.83,-15.25,-17.93,0,*45
1497974690.25,13283,25.56,74430.5,17.83,-14.61,-17.35,0,*49
1497974691.49,13284,25.5,74428.5,17.83,-15.01,-17.63,0,*4A
1497974692.72,13285,25.56,74428.8,17.83,-14.61,-17.41,0,*4C
1497974693.97,13286,25.5,74430.0,17.85,-15.25,-17.93,0,*47
1497974695.22,13287,25.5,74424.5,17.85,-15.39,-18.41,0,*4B
1497974696.42,13288,25.56,74428.0,17.83,-15.71,-18.69,0,*44
1497974697.62,13289,25.56,74430.5,17.83,-15.71,-18.69,0,*45
1497974698.86,13290,25.56,74428.8,17.83,-15.57,-18.55,0,*46
1497974700.05,13291,25.56,74428.3,17.83,-16.03,-19.03,0,*47
1497974701.28,13292,25.5,74430.5,17.85,-15.67,-18.79,0,*4F
1497974702.5,13293,25.56,74428.3,17.83,-15.49,-18.55,0,*4A
1497974703.73,13294,25.56,74430.5,17.85,-15.53,-18.65,0,*43
1497974704.93,13295,25.5,74428.8,17.83,-15.71,-18.73,0,*43
1497974706.18,13296,25.56,74430.5,17.85,-15.39,-18.65,0,*4D
1497974707.41,13297,25.5,74428.0,17.83,-16.03,-19.31,0,*40
1497974708.6,13298,25.5,74426.5,17.83,-15.75,-19.03,0,*4C
1497974709.82,13299,25.56,74428.8,17.83,-15.99,-19.31,0,*4E
1497974711.05,13300,25.5,74428.5,17.83,-15.89,-19.17,0,*4A
1497974712.3,13301,25.5,74430.5,17.81,-15.53,-18.89,0,*48
1497974713.56,13302,25.56,74430.0,17.79,-16.09,-19.41,0,*45
1497974714.83,13303,25.56,74428.8,17.81,-16.27,-19.81,0,*43
1497974716.12,13304,25.56,74430.0,17.81,-16.69,-20.19,0,*45
1497974717.33,13305,25.56,74430.0,17.79,-16.59,-20.05,0,*4D
1497974718.54,13306,25.5,74426.3,17.79,-16.59,-20.05,0,*4E
1497974719.76,13307,25.56,74428.0,17.79,-16.31,-19.75,0,*4C
1497974721.04,13308,25.56,74428.5,17.81,-16.27,-19.81,0,*48
1497974722.3,13309,25.56,74428.8,17.77,-16.27,-19.75,0,*4B
1497974723.59,13310,25.56,74428.0,17.77,-16.13,-19.61,0,*41
1497974724.87,13311,25.56,74430.5,17.77,-15.39,-18.93,0,*47
1497974726.09,13312,25.5,74424.8,17.81,-15.49,-19.07,0,*46
1497974727.31,13313,25.5,74426.3,17.79,-15.43,-18.83,0,*47
1497974728.54,13314,25.56,74426.0,17.79,-15.35,-18.79,0,*44
1497974729.79,13315,25.56,74430.0,17.79,-15.39,-18.93,0,*4D
1497974731.01,13316,25.5,74426.8,17.79,-15.11,-18.55,0,*4E
1497974732.24,13317,25.56,74424.8,17.79,-15.67,-19.23,0,*4E
1497974733.49,13318,25.56,74430.0,17.79,-15.81,-19.41,0,*4D
1497974734.72,13319,25.56,74428.5,17.79,-15.43,-19.07,0,*40
1497974735.95,13320,25.56,74430.3,17.79,-15.95,-19.57,0,*44
1497974737.19,13321,25.56,74428.0,17.79,-15.95,-19.57,0,*45
1497974738.45,13322,25.56,74428.0,17.81,-15.29,-18.93,0,*4F
1497974739.7,13323,25.5,74424.0,17.81,-15.53,-19.23,0,*49
1497974740.92,13324,25.56,74426.5,17.79,-15.21,-18.83,0,*47
1497974742.12,13325,25.56,74424.8,17.79,-15.15,-18.73,0,*4E
1497974743.39,13326,25.56,74430.3,17.81,-15.21,-18.89,0,*48
1497974744.67,13327,25.5,74424.0,17.81,-15.35,-18.93,0,*47
1497974745.86,13328,25.56,74424.8,17.83,-15.15,-18.83,0,*49
1497974747.09,13329,25.56,74424.0,17.79,-15.25,-18.93,0,*4F
1497974748.31,13330,25.56,74426.5,17.83,-15.29,-18.89,0,*45
1497974749.58,13331,25.56,74424.3,17.81,-15.75,-19.57,0,*4D
1497974750.78,13332,25.56,74426.5,17.83,-15.63,-19.47,0,*4A
1497974752.03,13333,25.56,74426.8,17.81,-15.53,-19.41,0,*4C
1497974753.28,13334,25.56,74426.8,17.81,-15.35,-19.03,0,*4D
1497974754.53,13335,25.56,74426.8,17.81,-15.53,-19.41,0,*4A
1497974755.81,13336,25.56,74424.3,17.81,-15.81,-19.65,0,*40
1497974757.04,13337,25.56,74424.8,17.81,-15.67,-19.51,0,*4E
1497974758.29,13338,25.56,74426.8,17.81,-15.89,-19.71,0,*43
1497974759.55,13339,25.56,74426.5,17.81,-16.23,-20.09,0,*44
1497974760.75,13340,25.56,74424.5,17.79,-15.99,-19.91,0,*44
1497974761.98,13341,25.56,74428.5,17.81,-15.75,-19.51,0,*4C
1497974763.18,13342,25.56,74426.5,17.79,-15.99,-19.71,0,*48
1497974764.41,13343,25.56,74428.0,17.81,-15.53,-19.37,0,*4A
1497974765.66,13344,25.56,74428.0,17.81,-15.29,-18.93,0,*4F
1497974766.9,13345,25.56,74426.5,17.81,-15.21,-18.79,0,*42
1497974768.12,13346,25.56,74424.8,17.81,-15.49,-19.07,0,*47
1497974769.35,13347,25.56,74426.5,17.79,-15.53,-19.23,0,*4C
1497974770.59,13348,25.56,74430.0,17.83,-15.57,-19.23,0,*42
1497974771.84,13349,25.56,74428.0,17.81,-15.49,-18.89,0,*4F
1497974773.06,13350,25.56,74426.3,17.81,-15.49,-19.07,0,*40
1497974774.26,13351,25.56,74426.0,17.83,-15.63,-19.17,0,*4A
1497974775.47,13352,25.56,74424.0,17.83,-15.57,-19.03,0,*4B
1497974776.7,13353,25.56,74424.8,17.83,-15.71,-19.31,0,*4F
1497974777.9,13354,25.56,74426.0,17.83,-15.71,-19.17,0,*4C
1497974779.12,13355,25.56,74426.8,17.85,-15.53,-19.07,0,*4A
1497974780.35,13356,25.56,74424.3,17.85,-15.29,-18.69,0,*4D
1497974781.6,13357,25.56,74426.8,17.85,-15.39,-18.79,0,*4C
1497974782.8,13358,25.56,74430.3,17.87,-15.67,-18.99,0,*44
1497974784.08,13359,25.56,74424.5,17.85,-15.81,-19.27,0,*4B
1497974785.33,13360,25.56,74424.3,17.85,-15.81,-19.17,0,*42
1497974786.61,13361,25.56,74424.5,17.85,-15.43,-18.93,0,*40
1497974787.84,13362,25.56,74430.3,17.87,-15.81,-19.17,0,*42
1497974789.1,13363,25.56,74426.3,17.87,-16.09,-19.41,0,*43
1497974790.35,13364,25.56,74424.5,17.89,-15.95,-19.23,0,*48
1497974791.57,13365,25.56,74426.5,17.87,-16.27,-19.71,0,*4A
1497974792.81,13366,25.56,74426.0,17.87,-17.21,-20.69,0,*4D
1497974794.04,13367,25.56,74426.8,17.85,-16.75,-20.05,0,*44
1497974795.27,13368,25.56,74424.8,17.83,-16.59,-19.81,0,*45
1497974796.55,13369,25.56,74424.0,17.85,-16.27,-19.57,0,*40
1497974797.83,13370,25.56,74426.8,17.85,-16.31,-19.41,0,*48
1497974799.06,13371,25.56,74426.8,17.87,-16.59,-19.61,0,*47
1497974800.31,13372,25.56,74424.8,17.85,-16.31,-19.47,0,*4C
1497974801.52,13373,25.56,74422.8,17.83,-16.41,-19.47,0,*4C
1497974802.78,13374,25.56,74424.0,17.85,-16.41,-19.41,0,*4B
1497974803.98,13375,25.56,74424.3,17.83,-16.75,-19.75,0,*4C
1497974805.21,13376,25.56,74424.3,17.85,-16.75,-19.71,0,*4D
1497974806.44,13377,25.56,74422.8,17.85,-16.75,-19.75,0,*48
1497974807.67,13378,25.56,74426.8,17.85,-16.59,-19.47,0,*48
1497974808.9,13379,25.56,74424.8,17.83,-16.75,-19.61,0,*45
1497974810.14,13380,25.56,74422.3,17.87,-16.41,-19.31,0,*45
1497974811.4,13381,25.56,74424.0,17.85,-16.41,-19.27,0,*41
1497974812.67,13382,25.56,74424.8,17.85,-16.27,-18.93,0,*4C
1497974813.93,13383,25.56,74424.3,17.85,-16.59,-19.41,0,*4A
1497974815.14,13384,25.56,74424.0,17.87,-16.83,-19.47,0,*4E
1497974816.37,13385,25.56,74420.8,17.87,-16.59,-19.31,0,*49
1497974817.63,13386,25.56,74424.3,17.85,-16.59,-19.31,0,*48
1497974818.85,13387,25.56,74426.0,17.85,-16.89,-19.47,0,*45
1497974820.11,13388,25.56,74426.3,17.85,-17.11,-19.75,0,*4B
1497974821.36,13389,25.56,74422.8,17.85,-17.11,-19.91,0,*40
1497974822.61,13390,25.56,74426.5,17.85,-17.11,-19.71,0,*46
1497974823.85,13391,25.56,74424.8,17.87,-16.59,-19.31,0,*4C
1497974825.1,13392,25.56,74424.3,17.85,-17.11,-19.75,0,*40
1497974826.35,13393,25.56,74422.5,17.87,-16.69,-19.27,0,*4A
1497974827.61,13394,25.56,74426.3,17.89,-16.83,-19.41,0,*47
1497974828.84,13395,25.56,74426.0,17.87,-17.17,-19.75,0,*43
1497974830.08,13396,25.56,74426.8,17.87,-18.01,-20.63,0,*45
1497974831.32,13397,25.56,74424.3,17.87,-18.41,-20.99,0,*45
1497974832.57,13398,25.56,74426.8,17.83,-18.31,-20.99,0,*49
1497974833.81,13399,25.56,74424.3,17.83,-18.69,-21.23,0,*45
1497974835.03,13400,25.56,74426.0,17.83,-18.89,-21.47,0,*4E
1497974836.28,13401,25.56,74424.8,17.81,-19.07,-21.57,0,*4B
1497974837.52,13402,25.56,74426.5,17.79,-18.83,-21.27,0,*45
1497974838.73,13403,25.56,74426.8,17.79,-18.69,-21.17,0,*43
1497974839.96,13404,25.56,74424.0,17.75,-19.65,-22.07,0,*47
1497974841.17,13405,25.56,74426.5,17.75,-20.25,-22.63,0,*4A
1497974842.41,13406,25.56,74424.3,17.69,-19.37,-21.87,0,*44
1497974843.63,13407,25.56,74422.5,17.67,-19.71,-22.07,0,*42
1497974844.89,13408,25.56,74420.3,17.67,-19.61,-21.93,0,*42
1497974846.12,13409,25.56,74424.0,17.65,-19.95,-22.21,0,*40
1497974847.41,13410,25.56,74422.3,17.63,-19.65,-21.83,0,*4A
1497974848.64,13411,25.56,74426.8,17.63,-19.47,-21.77,0,*40
1497974849.87,13412,25.56,74420.0,17.61,-19.47,-21.57,0,*43
1497974851.13,13413,25.56,74424.3,17.59,-19.57,-21.77,0,*4A
1497974852.36,13414,25.56,74422.8,17.59,-19.37,-21.43,0,*4C
1497974853.59,13415,25.56,74426.3,17.57,-18.83,-20.99,0,*4B
1497974854.8,13416,25.56,74420.8,17.57,-18.69,-20.69,0,*43
1497974856.03,13417,25.56,74422.8,17.55,-19.03,-21.13,0,*41
1497974857.29,13418,25.56,74426.0,17.55,-19.61,-21.77,0,*48
1497974858.53,13419,25.56,74424.8,17.53,-19.71,-21.87,0,*41
1497974859.78,13420,25.56,74424.3,17.51,-19.47,-21.57,0,*41
1497974861.01,13421,25.56,74422.5,17.51,-19.37,-21.39,0,*4F
1497974862.24,13422,25.56,74424.3,17.49,-18.69,-20.83,0,*4F
1497974863.5,13423,25.56,74426.0,17.49,-18.93,-20.99,0,*40
1497974864.72,13424,25.56,74424.0,17.49,-18.69,-20.59,0,*4E
1497974865.95,13425,25.56,74426.3,17.49,-18.79,-20.83,0,*49
1497974867.18,13426,25.56,74422.5,17.49,-18.59,-20.59,0,*4F
1497974868.41,13427,25.56,74426.0,17.49,-18.07,-19.85,0,*4E
1497974869.65,13428,25.56,74426.3,17.45,-18.35,-20.09,0,*42
1497974870.88,13429,25.56,74426.0,17.49,-17.93,-19.71,0,*49
1497974872.14,13430,25.56,74426.0,17.51,-17.63,-19.23,0,*40
1497974873.36,13431,25.56,74424.0,17.49,-17.25,-19.07,0,*4C
1497974874.61,13432,25.56,74422.0,17.51,-17.41,-19.03,0,*40
1497974875.87,13433,25.56,74424.8,17.55,-17.49,-19.31,0,*4C
1497974877.11,13434,25.56,74422.8,17.51,-17.41,-19.07,0,*42
1497974878.39,13435,25.56,74424.3,17.51,-17.55,-19.23,0,*40
1497974879.65,13436,25.56,74426.3,17.51,-17.63,-19.23,0,*46
1497974880.85,13437,25.56,74426.0,17.53,-17.49,-19.03,0,*4F
1497974882.08,13438,25.56,74426.3,17.53,-17.55,-19.17,0,*48
1497974883.31,13439,25.56,74424.8,17.55,-17.35,-18.83,0,*45
1497974884.54,13440,25.56,74424.0,17.53,-17.25,-18.65,0,*44
1497974885.77,13441,25.56,74424.3,17.53,-17.25,-18.73,0,*42
1497974887.03,13442,25.56,74424.8,17.55,-17.45,-18.99,0,*45
1497974888.26,13443,25.56,74426.5,17.57,-17.45,-18.83,0,*4D
1497974889.48,13444,25.56,74426.0,17.57,-17.45,-18.83,0,*4A
1497974890.71,13445,25.56,74424.5,17.57,-17.45,-18.83,0,*4B
1497974891.96,13446,25.56,74424.5,17.57,-17.55,-18.93,0,*48
1497974893.24,13447,25.56,74426.8,17.59,-17.59,-18.93,0,*4B
1497974894.52,13448,25.56,74424.0,17.59,-18.01,-19.23,0,*4C
1497974895.77,13449,25.56,74426.8,17.57,-18.01,-19.27,0,*47
1497974896.96,13450,25.56,74426.8,17.57,-17.73,-19.07,0,*47
1497974898.19,13451,25.56,74424.0,17.57,-18.07,-19.23,0,*4C
1497974899.44,13452,25.56,74426.5,17.59,-17.87,-18.93,0,*4C
1497974900.69,13453,25.56,74424.3,17.59,-18.07,-19.23,0,*40